Quincy, IL

12:43 AM CST on November 20, 2019 (GMT -0600)
Quincy Regional-Baldwin

Weather History for KUIN - September, 2019

Change the Weather History Date:

Sunday, September 15, 2019

  Actual Average Record
Temperature  
Mean Temperature 78 °F 67 °F  
Max Temperature 88 °F 78 °F 100 °F (1939)
Min Temperature 67 °F 56 °F 37 °F (2007)
Degree Days  
Heating Degree Days 0 2  
Month to date heating degree days 0 18  
Since 1 July heating degree days 2 23  
Cooling Degree Days 12 4  
Month to date cooling degree days 123 84  
Year to date cooling degree days 1180 1037  
Growing Degree Days 28 (Base 50)    
Moisture  
Dew Point 66 °F    
Average Humidity 74    
Maximum Humidity 90    
Minimum Humidity 57    
Precipitation  
Precipitation 0.05 in 0.11 in 2.83 in (1915)
Month to date precipitation 0.73 1.65  
Year to date precipitation 31.76 27.40  
Sea Level Pressure  
Sea Level Pressure 30.03 in    
Wind  
Wind Speed 7 mph ()    
Max Wind Speed 17 mph    
Max Gust Speed 23 mph    
Visibility 9.9 miles    
Events Rain    
T = Trace of Precipitation, MM = Missing Value Source: Averaged Metar Reports

Daily Weather History Graph

Daily Weather History Graph

Search for Another Location

Airport or City:

Astronomy

Sep. 15, 2019 Rise Set
Actual Time 6:45 AM CDT 7:13 PM CDT
Civil Twilight 6:18 AM CDT 7:40 PM CDT
Nautical Twilight 5:46 AM CDT 8:12 PM CDT
Astronomical Twilight 5:13 AM CDT 8:45 PM CDT
Moon 8:21 PM CDT (9/15) 7:55 AM CDT (9/15)
Length of Visible Light 13h 22m
Length of Day
12h 28m
Full, 98% of the Moon is Illuminated
Sep 15
Full
Sep 21
Last Quarter
Sep 28
New
Oct 5
First Quarter
Oct 13
Full

Hourly Weather History & Observations

Time (CDT) Temp. Heat Index Dew Point Humidity Pressure Visibility Wind Dir Wind Speed Gust Speed Precip Events Conditions
12:54 AM 72.0 °F - 59.0 °F 64% 30.08 in 10.0 mi South 8.1 mph - N/A   Clear
1:54 AM 72.0 °F - 59.0 °F 64% 30.06 in 10.0 mi South 11.5 mph - N/A   Clear
2:54 AM 69.1 °F - 60.1 °F 73% 30.04 in 10.0 mi South 10.4 mph - N/A   Clear
3:54 AM 68.0 °F - 60.1 °F 76% 30.04 in 10.0 mi South 9.2 mph - N/A   Clear
4:54 AM 70.0 °F - 61.0 °F 73% 30.04 in 10.0 mi South 9.2 mph - N/A   Clear
5:54 AM 72.0 °F - 62.1 °F 71% 30.04 in 10.0 mi SSW 10.4 mph - N/A   Clear
6:54 AM 72.0 °F - 63.0 °F 73% 30.06 in 10.0 mi South 6.9 mph - N/A   Clear
7:54 AM 68.0 °F - 64.9 °F 90% 30.09 in 10.0 mi ENE 3.5 mph - 0.00 in Rain Light Rain
8:54 AM 69.1 °F - 64.9 °F 87% 30.10 in 10.0 mi South 3.5 mph - 0.02 in Rain Light Rain
9:54 AM 70.0 °F - 64.9 °F 84% 30.08 in 8.0 mi South 9.2 mph - 0.02 in Rain Light Rain
10:54 AM 72.0 °F - 66.0 °F 81% 30.05 in 10.0 mi South 12.7 mph - 0.01 in   Scattered Clouds
11:54 AM 73.9 °F - 66.9 °F 79% 30.04 in 10.0 mi South 12.7 mph - N/A   Partly Cloudy
12:54 PM 77.0 °F - 68.0 °F 74% 30.03 in 10.0 mi South 10.4 mph - N/A   Clear
1:54 PM 84.0 °F 88.4 °F 70.0 °F 63% 30.01 in 10.0 mi SSW 12.7 mph - N/A   Clear
2:54 PM 87.1 °F 92.8 °F 71.1 °F 59% 29.98 in 10.0 mi SW 11.5 mph - N/A   Clear
3:54 PM 86.0 °F 90.1 °F 69.1 °F 57% 29.97 in 10.0 mi WSW 11.5 mph - N/A   Overcast
4:54 PM 84.9 °F 89.4 °F 70.0 °F 61% 29.96 in 10.0 mi West 6.9 mph - N/A   Mostly Cloudy
5:54 PM 86.0 °F 90.7 °F 70.0 °F 59% 29.97 in 10.0 mi WSW 8.1 mph - N/A   Clear
6:54 PM 81.0 °F 85.2 °F 72.0 °F 74% 29.97 in 10.0 mi SW 3.5 mph - N/A   Clear
7:54 PM 80.1 °F 83.6 °F 71.1 °F 74% 29.99 in 10.0 mi SSW 3.5 mph - N/A   Clear
8:54 PM 77.0 °F - 71.1 °F 82% 30.00 in 10.0 mi SW 3.5 mph - N/A   Clear
9:54 PM 75.9 °F - 70.0 °F 82% 30.01 in 10.0 mi SSW 4.6 mph - N/A   Clear
10:54 PM 73.9 °F - 69.1 °F 85% 30.02 in 10.0 mi SSW 5.8 mph - N/A   Clear
11:54 PM 75.0 °F - 70.0 °F 84% 30.01 in 10.0 mi Calm Calm - N/A   Clear